Regional Weather Roundup
Issued by NWS Newport/Morehead, NC

Current Version | Previous Version | Graphics & Text | Print | Product List | Glossary Off
Versions: 1 2 3 4 5 6 7 8 9 10 11 12 13 14 15 16 17 18 19 20 21 22 23 24 25 26 27 28 29 30 31 32 33 34 35 36 37 38 39 40 41 42 43 44 45 46 47 48 49 50

000
ASUS42 KMHX 010113
RWRMHX
WEATHER ROUNDUP FOR EASTERN NORTH CAROLINA
NATIONAL WEATHER SERVICE NEWPORT/MOREHEAD CITY NC
900 PM EDT FRI JUL 31 2015

NOTE: "FAIR" INDICATES FEW OR NO CLOUDS BELOW 12,000 FEET
WITH NO SIGNIFICANT WEATHER AND/OR OBSTRUCTIONS TO VISIBILITY

NCZ015>017-031-032-045>047-102-103-010200-
NORTH COAST

CITY           SKY/WX    TMP DP  RH WIND       PRES   REMARKS
EDENTON          N/A     78  65  63 SE5       29.92R
ELIZABETH CITY FAIR      75  67  76 CALM      29.92R
KITTY HAWK     FAIR      76  62  62 CALM      29.91R
MANTEO         FAIR      77  66  69 CALM      29.92R

$$

NCZ045>047-081-094-103-104-010200-
CENTRAL COAST

CITY           SKY/WX    TMP DP  RH WIND       PRES   REMARKS
FRISCO         FAIR      78  70  76 CALM      29.93R
SWANQUARTER      N/A     79 N/A N/A E3        29.88S

$$

NCZ095-097-098-100-101-010200-
SOUTHERN COAST

CITY           SKY/WX    TMP DP  RH WIND       PRES   REMARKS
BEAUFORT       FAIR      75  74  96 SW5       29.91F
CEDAR ISLAND     N/A     81 N/A N/A S1G7      29.97R
JACKSONVILLE   MOCLDY    78  72  81 W3        29.92R THUNDER
PINEY ISLAND   FAIR     N/A N/A N/A S3        29.92R
WILMINGTON     MOCLDY    76  75  97 N3        29.92R


$$

NCZ011>013-027>030-043-044-078>080-089-090>093-098-010200-
COASTAL PLAIN

CITY           SKY/WX    TMP DP  RH WIND       PRES   REMARKS
AHOSKIE        FAIR      75  68  77 CALM      29.92R
CLINTON        FAIR      82  74  76 S5        29.93R
ELIZABETHTOWN  FAIR      79  70  74 SE6       29.93R
GOLDSBORO      FAIR      83  71  66 CALM      29.89R
GREENVILLE     MOCLDY    82  73  74 SE6       29.93R
HAVELOCK       LGT RAIN  77  75  93 S9        29.94R
KENANSVILLE    CLOUDY   N/A N/A N/A CALM      29.93R
KINSTON        FAIR      81  75  83 CALM      29.92R
NEW BERN       MOCLDY    82  74  76 SE7       29.93R
RICHLANDS      FAIR      81  70  69 SW10      29.92R
ROCKY MOUNT    FAIR      81  64  56 NE3       29.92R
WASHINGTON     FAIR      81  72  74 E3        29.92R
WHITEVILLE     FAIR      77  71  83 S7        29.93R

$$

AMZ130-135-150-152-154-156-158-170-250-252-270-ANZ085-086-088-633-658-670-010200-
MARINE OBSERVATIONS

STATION/POSITION TIME  TEMP    WIND        PRES    WAVE   SWELL
                       AIR SEA DIR/SP/G            HT/PER HT/PER
                 (UTC) (F)     (DEG/KT/KT) (MB)    (FT/S) (FT/S)
CHESAPEAKE LIGHT 0100   80     240/  5/  5 1013.3
64 E VA BEACH    0050   81 82  310/  8/ 10 1011.9    4/ 9   3/ 9
DUCK             0000   81 80   50/  4/  5 1011.6
2 E DUCK         0011      80                N/A     3/ 5   2/11
OREGON INLET     0000   81 86   10/  3/  5 1012.4
13E OREGON INLT  0100      82                N/A     3/ 8   2/11
HATTERAS CG      0000   82 84   60/  3/  4 1012.3
DIAMOND BUOY     0050   81 85  360/  4/  6 1013.3    4/ 8   3/ 8
CAPE LOOKOUT     0100   79     320/  8/  9 1012.7
BEAUFORT LAB     0000   77 83  200/ 11/ 14 1012.5
30 SE NEW RVR IN NOT AVBL
27 SE WRIGHTSVLE NOT AVBL
5 SE WRIGHTSVLE  0008   80 83  250/ 16/ 19 1012.0
225 S CAPE HAT   0050   82 81  240/ 17/ 21 1015.2    7/ 8   2/14
41 SE CHARLESTON 0050   83 84  210/ 16/ 17 1012.6    3/ 8   2/ 8

$$


USA.gov is the U.S. government's official web portal to all federal, state and local government web resources and services.